Regional Weather Roundup
Issued by NWS Newport/Morehead, NC

Current Version | Previous Version | Text Only | Print | Product List | Glossary On
Versions: 1 2 3 4 5 6 7 8 9 10 11 12 13 14 15 16 17 18 19 20 21 22 23 24 25 26 27 28 29 30 31 32 33 34 35 36 37 38 39 40 41 42 43 44 45 46 47 48 49 50
000
ASUS42 KMHX 040724
RWRMHX
WEATHER ROUNDUP FOR EASTERN NORTH CAROLINA
NATIONAL WEATHER SERVICE NEWPORT/MOREHEAD CITY NC
300 AM EDT MON MAY 04 2015

NOTE: "FAIR" INDICATES FEW OR NO CLOUDS BELOW 12,000 FEET
WITH NO SIGNIFICANT WEATHER AND/OR OBSTRUCTIONS TO VISIBILITY

NCZ015>017-031-032-045>047-102-103-040800-
NORTH COAST

CITY           SKY/WX    TMP DP  RH WIND       PRES   REMARKS
EDENTON        CLEAR     58  52  79 S5        30.25S
ELIZABETH CITY CLEAR     58  48  69 SW9       30.24R
KITTY HAWK     SUNNY     61  51  70 W5        30.24R
MANTEO         MOCLDY    60  52  74 CALM      30.25S

$$

NCZ045>047-081-094-103-104-040800-
CENTRAL COAST

CITY           SKY/WX    TMP DP  RH WIND       PRES   REMARKS
FRISCO         MOCLDY    60  56  86 W5        30.25S
SWANQUARTER      N/A     64 N/A N/A W7        30.21S

$$

NCZ095-097-098-100-101-040800-
SOUTHERN COAST

CITY           SKY/WX    TMP DP  RH WIND       PRES   REMARKS
BEAUFORT       CLEAR     56  56 100 CALM      30.25F
CEDAR ISLAND     N/A     61 N/A N/A S3        30.30S
JACKSONVILLE   CLEAR     54  51  90 CALM      30.25S
PINEY ISLAND   SUNNY    N/A N/A N/A W8        30.25S
WILMINGTON     CLEAR     54  52  93 CALM      30.24F


$$

NCZ011>013-027>030-043-044-078>080-089-090>093-098-040800-
COASTAL PLAIN

CITY           SKY/WX    TMP DP  RH WIND       PRES   REMARKS
AHOSKIE          N/A     53  48  83 CALM      30.25R
CLINTON        CLEAR     53  50  89 CALM      30.26S
ELIZABETHTOWN  CLEAR     55  52  91 CALM      30.25R
GOLDSBORO      CLEAR     58  49  73 CALM      30.23S
GREENVILLE     CLEAR     55  50  82 W5        30.26S
HAVELOCK       CLEAR     53  51  93 CALM      30.26F
KENANSVILLE    CLEAR     49  47  95 CALM      30.27S
KINSTON        CLEAR     53  49  89 CALM      30.26S
NEW BERN       CLEAR     56  52  86 CALM      30.26S
RICHLANDS      CLEAR     48  45  87 CALM      30.26S
ROCKY MOUNT    CLEAR     53  48  83 CALM      30.25R
WASHINGTON     CLEAR     55  50  82 CALM      30.26R
WHITEVILLE     CLEAR     53  51  91 CALM      30.24S

$$

AMZ130-135-150-152-154-156-158-170-250-252-270-ANZ085-086-088-633-658-670-040800-
MARINE OBSERVATIONS

STATION/POSITION TIME  TEMP    WIND        PRES    WAVE   SWELL
                       AIR SEA DIR/SP/G            HT/PER HT/PER
                 (UTC) (F)     (DEG/KT/KT) (MB)    (FT/S) (FT/S)
CHESAPEAKE LIGHT 0700   63     240/ 19/ 19 1023.7
64 E VA BEACH    0650   62 61  240/ 10/ 14 1023.1    5/ 9   5/ 9
DUCK             0700   63 55  230/  7/  8 1023.0
2 E DUCK         0711      56                N/A     4/10   2/13
OREGON INLET     0700   64 61  250/  9/ 12 1023.9
13E OREGON INLT  0700      56                N/A     4/13   2/13
HATTERAS CG      0700   65 62  270/  4/  5 1023.8
DIAMOND BUOY     0650   63 60  290/  6/  6 1024.3    4/11   3/11
CAPE LOOKOUT     0700   65     310/  3/  3 1024.1
BEAUFORT LAB     0700   64 65  240/  1/  3 1023.4
27 SE WRIGHTSVLE 0700   68 71  270/  6/  6   N/A
5 SE WRIGHTSVLE  0608   67 67  220/  4/  4 1024.3
225 S CAPE HAT   0550   68 70   60/ 10/ 12 1024.3    7/11   7/11
41 SE CHARLESTON 0650   72 73  150/  8/ 10 1023.3    3/11   3/11

$$



USA.gov is the U.S. government's official web portal to all federal, state and local government web resources and services.